Wind_Gust
14 14 15 15 13 12 13 13 12 13 12 12 12 10 12 9 7 7 8 8 7 7 6 6 5 5 8 9 8 8 7 6 6 7 8 8 7 7 8 8 7 6
12 13 14 13 11 10 10 12 11 13 13 12 12 12 10 9 6 8 7 8 7 7 7 5 4 4 6 7 7 8 6 6 5 5 6 6 4 6 5 5 6 7
9 11 12 12 13 11 9 9 11 11 13 13 12 13 12 10 8 7 8 8 7 7 6 6 4 4 7 6 6 6 5 5 5 5 7 5 5 6 6 6 7 6
6 10 10 10 11 12 10 9 9 10 11 12 13 13 14 11 10 9 8 8 7 7 6 5 5 3 6 6 6 7 6 7 5 5 5 5 6 6 4 4 4 7
7 7 8 8 9 10 9 10 10 10 10 12 12 11 13 11 9 9 9 7 8 6 5 6 4 4 6 6 5 7 6 8 6 6 5 5 3 4 3 3 4 5
6 7 7 8 9 11 10 9 10 9 8 10 13 12 12 11 10 9 8 7 6 8 6 5 5 4 5 6 5 7 6 9 6 5 6 6 4 3 4 4 3 2
7 5 6 8 8 11 9 7 7 7 8 8 11 12 12 11 10 9 9 9 7 8 8 7 6 4 5 5 4 5 6 6 7 5 6 6 6 3 3 3 2 3
4 3 7 7 9 9 8 9 7 8 7 8 6 6 12 14 13 10 10 9 9 8 9 10 9 7 6 6 6 4 5 3 6 6 4 6 6 5 3 4 2 5
14 13 13 11 11 9 9 9 9 9 9 10 8 7 6 9 11 12 10 10 10 10 9 10 11 9 9 8 8 7 7 4 7 6 4 5 7 6 6 5 3 2
11 11 12 11 10 8 9 8 7 7 7 6 4 6 10 6 6 3 4 6 10 10 10 10 11 11 10 11 10 9 9 7 7 7 5 6 7 5 5 6 6 4
6 8 16 14 14 12 10 7 7 9 8 6 5 4 4 5 7 11 11 7 8 10 11 10 12 13 14 13 12 11 12 11 10 8 6 7 7 6 6 7 5 6
2 2 3 6 9 7 7 7 7 11 13 9 10 9 7 8 7 7 9 13 9 6 7 10 5 7 4 9 13 14 12 13 13 10 8 7 7 6 5 6 6 6
3 3 5 5 8 7 5 6 8 9 13 16 14 13 15 11 9 10 14 14 11 5 3 9 11 12 11 11 11 11 12 13 13 12 10 9 8 7 7 6 6 4
5 5 6 6 4 3 4 6 7 8 8 6 7 9 9 11 13 14 13 9 6 5 6 8 9 9 11 13 11 10 10 13 15 15 14 12 10 10 10 9 7 5
5 3 3 3 4 4 6 10 12 13 12 11 10 11 10 9 7 8 9 8 5 7 6 6 9 11 11 13 15 13 10 13 15 17 16 13 11 10 9 10 8 7
7 6 6 5 4 4 5 5 8 11 11 10 11 11 11 9 8 8 8 10 9 8 9 10 11 10 11 15 13 11 8 12 14 16 15 14 13 11 9 9 9 8
6 7 6 6 5 5 6 6 7 8 9 10 10 9 10 10 10 10 12 12 11 10 9 10 11 13 15 17 17 14 12 9 11 11 12 13 14 14 13 11 9 9
6 6 7 7 8 10 10 10 9 8 9 11 12 10 11 10 11 13 12 11 12 11 11 11 10 9 14 13 14 14 13 15 14 14 13 14 14 14 13 11 10 9
1 1 2 3 2 3 4 6 6 6 6 3 5 12 12 12 13 12 12 12 11 10 12 8 7 10 14 15 14 14 17 16 14 15 16 13 13 12 11 10 9 8
2 1 1 2 4 6 5 5 5 4 2 3 4 5 3 8 11 13 11 9 11 12 12 8 7 8 11 13 13 14 16 14 9 10 9 10 11 12 11 10 9 10
1 1 4 3 4 5 5 3 2 2 4 6 6 5 3 5 4 4 7 7 7 8 7 6 4 3 5 8 9 13 14 12 10 9 10 8 7 8 9 8 8 8
1 2 2 3 3 3 3 3 3 2 3 5 4 6 8 5 3 2 4 5 5 7 8 5 3 5 8 13 15 16 15 12 12 13 13 13 7 7 7 8 7 7
3 3 3 3 2 2 2 2 1 2 4 3 4 6 7 7 8 5 4 5 4 8 9 6 5 6 8 11 14 16 13 11 11 11 11 9 7 6 6 6 4 4
3 4 4 5 3 3 2 1 1 2 3 4 4 6 7 8 8 7 3 2 8 10 11 10 6 6 9 10 12 12 9 12 10 11 8 7 5 5 6 6 6 10
2 1 2 3 2 1 1 2 3 4 5 4 6 6 8 9 10 4 9 7 8 12 14 16 10 7 9 12 12 11 10 8 10 9 8 4 4 2 2 7 15 15
3 3 3 3 4 6 6 7 6 3 3 4 6 6 10 5 4 9 11 8 8 13 13 16 16 9 8 13 12 12 10 12 9 11 9 8 8 9 9 9 11 11
Wind_Speed
7 7 8 8 7 7 7 8 7 8 7 7 7 6 7 5 4 5 5 5 5 5 4 4 4 4 5 5 4 5 4 4 4 4 5 5 4 5 5 5 5 4
6 7 7 7 6 6 6 6 7 8 8 7 7 7 6 5 4 5 5 5 5 5 5 4 3 3 4 4 4 5 4 3 3 2 4 4 3 4 3 4 5 4
5 6 8 8 7 6 5 5 6 6 8 8 7 8 7 6 5 5 5 5 4 4 4 4 3 3 4 4 4 4 3 3 4 3 4 3 3 4 4 4 4 4
2 4 6 6 7 7 5 6 5 5 7 7 8 8 8 6 6 6 5 5 5 4 4 4 3 3 4 4 4 5 4 4 3 3 3 3 3 3 3 2 3 4
3 4 4 5 6 6 5 6 6 5 6 8 7 7 7 6 5 6 5 4 5 4 4 3 2 2 4 4 3 4 4 5 4 4 3 3 1 3 1 2 3 4
4 4 4 5 5 7 6 5 6 5 5 7 8 7 7 7 6 5 5 5 4 5 4 3 2 1 3 4 3 4 4 5 4 3 4 3 2 1 1 1 1 1
5 4 4 4 5 7 5 4 4 5 5 5 7 7 7 7 6 6 6 6 5 5 5 4 4 3 2 3 2 2 2 4 4 3 4 4 3 1 1 1 1 1
3 3 3 4 6 5 5 5 5 5 4 4 4 4 8 9 8 7 7 6 5 5 6 6 5 5 4 4 3 3 3 2 3 2 2 3 4 4 2 2 1 3
8 7 7 7 7 6 6 6 5 6 6 6 4 4 2 5 7 8 7 6 6 6 5 6 6 5 5 5 5 4 5 3 4 4 3 3 4 4 4 3 2 1
7 7 8 6 6 5 5 4 4 4 4 4 3 1 1 2 3 3 2 3 6 7 7 6 7 7 6 7 7 6 6 5 5 5 4 4 4 4 4 3 4 2
3 0 5 8 9 8 6 4 5 6 4 3 3 1 3 2 2 4 3 1 5 7 7 7 8 9 9 8 7 7 8 7 6 5 4 4 5 4 4 4 4 4
1 1 2 2 3 2 3 4 4 7 8 6 4 4 3 5 4 5 5 6 4 3 4 5 3 4 2 4 7 9 8 8 8 7 5 5 4 4 3 4 4 4
3 2 3 3 3 4 3 1 2 3 7 8 6 7 9 8 5 3 3 3 3 3 2 6 5 5 6 5 4 5 7 8 8 8 7 6 5 5 5 4 4 3
4 4 4 4 3 2 2 2 2 1 2 2 4 6 5 5 6 5 4 4 4 3 4 5 5 5 4 5 3 2 4 7 9 9 8 7 7 6 6 6 5 4
4 3 2 3 3 3 4 3 4 4 5 5 5 6 6 6 4 4 5 5 3 3 3 4 5 5 6 6 6 6 5 7 9 10 9 8 7 6 6 6 5 5
4 4 4 3 3 3 3 3 5 6 6 6 7 7 6 5 4 4 5 6 5 4 5 6 6 6 8 13 9 7 6 5 5 8 9 8 8 7 6 6 6 5
4 5 4 4 4 3 3 4 4 5 5 6 5 5 5 5 4 5 6 6 5 5 5 6 6 7 14 15 15 12 6 5 6 6 7 8 8 8 8 7 6 6
4 4 4 4 4 5 4 4 4 4 4 5 4 4 5 4 4 6 6 6 6 7 7 7 6 8 12 11 11 11 9 7 7 8 7 8 8 8 7 7 6 5
0 0 1 1 0 2 3 2 2 1 1 1 4 7 6 5 8 7 7 7 7 7 6 5 4 7 9 10 11 12 12 11 7 9 9 8 8 7 6 6 6 5
1 1 1 2 3 4 4 3 3 2 1 2 3 2 2 6 7 8 7 6 6 6 5 3 4 6 8 11 11 11 12 12 6 6 6 6 7 7 6 6 6 6
0 1 3 2 3 4 4 3 1 2 3 4 4 3 2 3 3 3 5 5 5 5 4 3 1 3 4 4 5 8 10 8 6 5 6 5 4 5 6 4 5 5
1 1 2 2 2 2 2 1 1 1 2 3 2 4 5 3 2 1 3 4 2 4 5 4 1 5 7 10 12 12 11 7 6 7 7 7 5 4 5 5 5 4
2 2 2 2 1 1 1 1 0 1 3 1 3 4 4 4 5 4 3 3 3 4 5 3 3 5 7 10 11 12 9 6 6 7 6 6 4 4 4 4 3 3
2 2 2 2 2 2 1 0 0 0 1 1 2 4 5 5 5 5 1 1 5 5 6 6 4 5 8 9 10 10 8 7 6 7 5 4 4 3 4 3 2 1
1 0 1 2 2 1 1 1 1 2 2 1 3 3 4 5 6 0 3 2 4 6 9 9 6 5 8 10 10 9 7 5 6 6 5 3 3 1 2 4 8 10
2 2 2 2 3 4 4 4 4 1 1 1 3 3 4 3 2 4 4 3 3 6 6 7 9 5 5 11 11 11 9 6 5 6 6 5 5 5 4 5 6 6
Wind_Direction
151 141 143 142 148 151 151 146 146 141 142 143 141 149 145 159 145 127 122 109 110 102 90 75 56 46 58 75 78 75 73 77 74 82 73 68 61 65 50 41 36 66
151 137 139 138 140 145 153 150 149 145 148 150 149 144 144 142 139 128 123 121 115 120 117 101 98 79 78 90 94 86 79 83 87 72 88 82 75 68 55 41 48 58
145 136 138 144 147 158 154 157 150 146 145 155 146 142 146 148 141 135 131 133 128 130 129 134 126 109 117 110 110 120 110 87 75 87 101 111 85 73 59 56 57 71
167 145 140 140 148 160 156 140 151 144 131 139 151 153 148 154 142 141 143 139 136 139 140 134 150 131 128 123 117 132 129 126 136 108 85 73 100 102 85 69 56 64
197 165 152 146 146 161 152 139 152 151 139 148 142 140 138 143 137 141 144 142 138 150 136 153 158 156 139 142 120 133 120 130 136 120 108 106 101 117 154 85 87 86
172 173 175 168 148 159 156 148 150 147 139 132 149 143 144 146 143 144 153 146 143 153 152 155 165 187 140 163 119 159 134 141 170 131 139 132 149 143 113 117 102 93
160 148 142 133 130 144 142 139 137 132 145 153 135 144 143 149 148 154 154 164 153 159 166 170 172 193 168 163 123 180 150 155 187 159 159 170 164 205 209 120 114 169
82 78 90 90 84 85 115 128 123 106 107 86 97 130 155 157 164 160 161 162 172 169 175 179 179 177 179 156 162 157 204 152 196 193 185 176 160 164 150 125 98 75
92 87 78 63 67 60 68 62 59 63 69 78 68 58 95 162 169 166 162 166 174 183 179 183 185 182 179 164 175 166 195 186 189 198 191 171 180 180 180 153 134 149
85 95 85 87 79 88 98 114 111 90 89 92 105 116 107 108 114 91 89 150 180 190 189 184 186 185 182 178 178 181 187 186 191 194 189 174 188 184 174 170 174 183
126 282 146 147 147 143 139 156 146 124 114 113 98 36 4 32 86 110 115 153 189 197 195 185 185 185 184 186 188 184 183 180 184 188 187 180 189 198 168 175 179 182
90 85 39 59 63 72 132 144 133 129 131 130 134 142 176 231 180 178 180 216 205 181 194 194 136 111 140 210 202 188 181 178 179 180 186 177 188 186 153 160 163 185
83 113 136 157 171 190 208 188 148 147 152 161 168 179 201 214 213 196 233 237 233 198 139 111 132 163 165 176 204 210 185 173 178 180 182 178 185 171 173 153 143 142
124 118 107 116 138 163 214 187 159 136 121 155 198 214 219 220 220 213 229 231 237 189 152 150 156 188 210 202 180 190 200 188 181 181 182 182 175 169 166 164 159 147
173 178 159 165 158 159 170 200 200 197 191 188 198 219 224 225 225 224 224 226 201 202 200 146 156 180 209 215 205 209 200 205 193 184 179 173 166 166 155 156 151 145
173 177 179 166 169 182 208 194 195 201 202 200 208 214 217 214 210 211 214 228 228 207 182 176 182 191 214 217 214 200 194 202 206 193 178 166 159 156 153 156 160 150
168 188 181 176 192 206 229 222 212 214 208 214 220 216 223 218 201 204 216 220 215 211 207 202 199 202 209 217 222 206 193 189 187 193 173 165 159 158 160 167 165 155
175 181 184 206 209 223 230 240 246 232 231 235 226 232 239 239 230 226 225 224 218 219 220 219 213 216 210 213 218 218 209 194 183 179 174 169 169 166 164 161 165 148
193 27 345 351 34 108 129 119 113 103 105 164 209 223 227 212 218 221 228 220 210 216 229 222 227 230 219 218 221 223 217 194 182 179 173 170 165 158 153 155 162 153
115 109 75 92 88 64 56 37 37 1 313 308 330 349 175 194 202 209 218 213 204 204 219 217 211 244 239 233 228 223 214 187 165 157 145 145 148 151 151 160 166 171
93 138 128 117 76 68 50 36 24 360 347 328 335 322 308 284 262 226 218 202 177 178 183 198 243 95 181 160 157 164 156 136 109 102 100 96 105 113 106 127 124 125
216 176 139 98 89 70 62 15 348 320 320 310 343 331 328 319 303 193 230 247 226 116 120 148 78 78 111 118 121 119 110 108 110 106 99 94 96 114 128 117 114 118
234 154 138 142 133 130 177 242 328 335 324 318 341 318 314 306 273 245 190 191 130 120 131 122 62 66 110 123 120 114 107 102 108 104 113 125 134 126 120 121 118 135
199 182 177 181 164 175 201 228 243 345 296 267 285 288 295 278 271 270 326 115 133 149 142 126 103 80 104 112 104 95 101 110 111 112 113 111 98 103 125 148 181 266
99 109 144 141 146 197 190 241 253 248 244 293 302 296 285 293 295 246 62 54 113 130 138 128 120 110 112 105 102 105 104 105 107 105 103 101 104 92 47 61 59 50
310 280 238 215 216 228 227 220 218 194 246 309 299 300 306 342 28 93 95 73 95 124 126 132 126 118 112 104 100 95 99 96 95 97 92 80 67 77 77 70 74 68